Weather History for Leuchars, United Kingdom

Change the Weather History Date:

Sunday, November 18, 2012

  Actual Average Record
Temperature  
Mean Temperature 38 °F -  
Max Temperature 44 °F 44 °F - ()
Min Temperature 33 °F 35 °F - ()
Degree Days  
Heating Degree Days 26    
Moisture  
Dew Point 35 °F    
Average Humidity 84    
Maximum Humidity 93    
Minimum Humidity 75    
Precipitation  
Precipitation 0.01 in - - ()
Sea Level Pressure  
Sea Level Pressure 29.73 in    
Wind  
Wind Speed 10 mph ()    
Max Wind Speed 16 mph    
Max Gust Speed -    
Visibility 7.9 miles    
Events Rain    
T = Trace of Precipitation, MM = Missing Value Source: Averaged Metar Reports

Daily Weather History Graph

Daily Weather History Graph

Search for Another Location

Airport:

Trip Planner

Search our weather history database for the weather conditions in past years. The results will help you decide how hot, cold, wet, or windy it might be!

Date:

Astronomy

Nov. 18, 2012 Rise Set
Actual Time 7:56 AM GMT 3:56 PM GMT
Civil Twilight 7:13 AM GMT 4:39 PM GMT
Nautical Twilight 6:26 AM GMT 5:26 PM GMT
Astronomical Twilight 5:41 AM GMT 6:10 PM GMT
Moon 12:04 PM GMT (11/18) 9:12 PM GMT (11/18)
Length of Visible Light 9h 26m
Length of Day
7h 59m
Waxing Crescent, 28% of the Moon is Illuminated
Nov 18
Waxing Crescent
Nov 20
First Quarter
Nov 28
Full
Dec 6
Last Quarter
Dec 13
New

Hourly Weather History & Observations

Time (GMT) Temp. Windchill Dew Point Humidity Pressure Visibility Wind Dir Wind Speed Gust Speed Precip Events Conditions
12:50 AM 35.6 °F 29.2 °F 33.8 °F 93% 29.65 in - West 8.1 mph - N/A   Clear
1:50 AM 35.6 °F 27.5 °F 32.0 °F 87% 29.65 in 6.2 mi West 11.5 mph - N/A   Partly Cloudy
2:50 AM 36 °F - 33 °F 84% 29.68 in 22 mi West 16.1 mph - -   Scattered Clouds
2:50 AM 35.6 °F 25.9 °F 33.8 °F 93% 29.65 in 6.2 mi West 16.1 mph - N/A   Partly Cloudy
3:50 AM 35.6 °F 28.6 °F 32.0 °F 87% 29.68 in 6.2 mi WSW 9.2 mph - N/A   Partly Cloudy
4:50 AM 35.6 °F 26.6 °F 32.0 °F 87% 29.68 in 6.2 mi West 13.8 mph - N/A   Partly Cloudy
5:50 AM 35 °F - 33 °F 87% 29.71 in 25 mi WSW 11.5 mph - -   Scattered Clouds
5:50 AM 35.6 °F 27.5 °F 32.0 °F 87% 29.71 in 6.2 mi WSW 11.5 mph - N/A   Partly Cloudy
6:50 AM 35.6 °F 27.1 °F 32.0 °F 87% 29.71 in 6.2 mi WSW 12.7 mph - N/A   Partly Cloudy
7:50 AM 33.8 °F 25.3 °F 32.0 °F 93% 29.74 in 6.2 mi WSW 11.5 mph - N/A   Partly Cloudy
8:50 AM 36 °F - 33 °F 84% 29.77 in 16 mi North 5.8 mph - -   Scattered Clouds
8:50 AM 35.6 °F 30.7 °F 33.8 °F 93% 29.74 in 6.2 mi North 5.8 mph - N/A   Partly Cloudy
9:50 AM 37.4 °F 29.3 °F 35.6 °F 93% 29.77 in 6.2 mi West 12.7 mph - N/A   Partly Cloudy
10:50 AM 41.0 °F 34.7 °F 37.4 °F 87% 29.77 in 6.2 mi WSW 10.4 mph - N/A   Partly Cloudy
11:50 AM 43 °F - 38 °F 75% 29.78 in 19 mi West 13.8 mph - -   Scattered Clouds
11:50 AM 42.8 °F 35.8 °F 37.4 °F 81% 29.77 in 6.2 mi West 13.8 mph - N/A   Partly Cloudy
12:50 PM 44.6 °F 37.8 °F 37.4 °F 76% 29.77 in 6.2 mi WSW 15.0 mph - N/A   Partly Cloudy
1:50 PM 44.6 °F 37.4 °F 37.4 °F 76% 29.77 in 6.2 mi WSW 16.1 mph - N/A   Partly Cloudy
2:50 PM 42 °F - 38 °F 79% 29.78 in 19 mi WSW 12.7 mph - - Rain Light Rain Showers
2:50 PM 42.8 °F 36.2 °F 37.4 °F 81% 29.77 in 6.2 mi WSW 12.7 mph - N/A   Mostly Cloudy
3:50 PM 39.2 °F 33.6 °F 35.6 °F 87% 29.77 in 6.2 mi WSW 8.1 mph - N/A   Mostly Cloudy
4:50 PM 41.0 °F 33.9 °F 35.6 °F 81% 29.77 in - WSW 12.7 mph - N/A   Clear
5:50 PM 39 °F - 34 °F 76% 29.78 in 16 mi West 10.4 mph - -   Partly Cloudy
5:50 PM 39.2 °F 32.5 °F 33.8 °F 81% 29.77 in - West 10.4 mph - N/A   Clear
6:50 PM 41.0 °F 34.7 °F 33.8 °F 76% 29.77 in - SW 10.4 mph - N/A   Clear
7:50 PM 39.2 °F 35.9 °F 35.6 °F 87% 29.77 in - SW 4.6 mph - N/A   Clear
8:50 PM 40 °F - 35 °F 78% 29.75 in 22 mi SSW 2.3 mph - -   Overcast
8:50 PM 41.0 °F - 35.6 °F 81% 29.74 in 6.2 mi SSW 2.3 mph - N/A   Overcast
9:50 PM 41.0 °F 35.8 °F 37.4 °F 87% 29.71 in 6.2 mi South 8.1 mph - N/A Rain Light Rain
10:50 PM 41.0 °F 37.1 °F 37.4 °F 87% 29.68 in 6.2 mi SSE 5.8 mph - N/A Rain Light Rain
11:50 PM 42 °F - 38 °F 79% 29.68 in 4 mi South 13.8 mph - - Rain Light Rain
11:50 PM 42.8 °F 35.8 °F 37.4 °F 81% 29.68 in 4.3 mi South 13.8 mph - N/A Rain Light Rain